sat.trackr.live / text

‹ back to catalog

SHIJIAN-30A (SJ-30A)

NORAD 66545 · 2025-266A

PAYLOAD ACTIVE UNKNOWN

§ Identity

Operator
Country
PRC
Launch date
2025-11-19
Launch site
JSC
Launch vehicle
Mass (kg)
RCS (m²)

External: N2YO · Heavens-Above · Gunter

§ Orbital elements

Epoch: 2026-05-24T21:27:18.039456Z

Period
95.02 min
Inclination
51.7990°
Eccentricity
0.0008989
Mean motion
15.15411105 rev/d
Perigee alt
513.5 km
Apogee alt
525.9 km
Semi-major
6,897.9 km
B*
3.7855e-4
RAAN
288.5076°
Arg perigee
174.1981°
Mean anomaly
185.9101°
Rev number
2,832

§ Raw data

SHIJIAN-30A (SJ-30A)1 66545U 25266A   26144.89395879  .00006943  00000+0  37855-3 0  99942 66545  51.7990 288.5076 0008989 174.1981 185.9101 15.15411105 28324

JSON: /api/v1/satellites/66545 · /tle

For live sub-satellite position, see the globe view (requires WebGL).

§ Visibility from observer

Set your observer location to see the next 7 days of passes ≥ 10°. The values pass through the URL so the page stays shareable.

No JS? Fill the form by hand. The geolocation button needs JavaScript.

§ Radio — SatNOGS DB

ModeDescriptionDownlinkUplink
BPSK S-band telemetry 2.274 GHz

1 transmitter · refreshed weekly from db.satnogs.org